Weather Service Report


076 
ASUS46 KLOX 300713
RWRCA 

SOUTHERN CALIFORNIA WEATHER ROUNDUP
NATIONAL WEATHER SERVICE OXNARD CALIFORNIA
1200 AM PDT THU JUN 30 2016

NOTE: "FAIR" INDICATES FEW OR NO CLOUDS BELOW 12,000 FEET WITH NO 
SIGNIFICANT WEATHER AND/OR OBSTRUCTIONS TO VISIBILITY.

  -  STATIONS PRECEEDED BY AN ASTERISK (*) ARE NOT NWS OR FAA 
     STATIONS AND ARE NOT SUBJECT TO NWS AND FAA QUALITY CONTROL.

CAZ041-042-087-300800-
LA AND ORANGE COUNTY COASTAL AREAS

  
CITY           SKY/WX    TMP DP  RH WIND       PRES   REMARKS
L.A. DOWNTOWN  CLEAR     67  61  81 CALM      29.87S                  
L.A. AIRPORT   PTCLDY    66  62  87 CALM      29.88S                  
LONG BEACH     PTCLDY    67  63  87 S6        29.87S                  

CITY           SKY/WX    TMP DP  RH WIND       PRES   REMARKS
AVALON           N/A     68 N/A N/A S3          N/A                   
FULLERTON      MOCLDY    69  63  81 S3        29.87S                  
*GETTY CENTER    N/A     66  57  72 NE3         N/A                   
HAWTHORNE      PTCLDY    66  62  87 CALM      29.88S                  
*LEO CARRILLO    N/A     64  61  91 NE3         N/A                   
*LOS ALAMITOS  FAIR      68  64  88 S6        29.87F                  
*REDONDO BEACH   N/A     66  62  87 CALM      29.87S                  
SANTA ANA      CLEAR     68  62  81 S7        29.87F                  
STA MONICA APT CLEAR     66  60  81 CALM      29.88S                  
*STA MON PIER    N/A     65  63  91 CALM      29.81S                  
*UCLA            N/A     64  59  82 CALM      29.85S                  

$$

CAZ547-548-048-300800-
LA COUNTY VALLEYS AND INLAND EMPIRE

  
CITY           SKY/WX    TMP DP  RH WIND       PRES   REMARKS
BURBANK        CLEAR     72  60  66 E8        29.88S                  
VAN NUYS       CLEAR     73  59  61 SE6       29.88R                  

CITY           SKY/WX    TMP DP  RH WIND       PRES   REMARKS
CORONA AIRPORT SUNNY     69  62  78 W9        29.88R                  
*CHATSWORTH      N/A     74  59  58 E3        29.85S                  
CHINO          CLEAR     72  59  63 W8        29.88S                  
*CLAREMONT       N/A     69  59  69 CALM        N/A                   
MARCH AFB      CLEAR     75  58  54 NW2       29.90S                  
*NORTHRIDGE      N/A     73  55  53 E2          N/A                   
ONTARIO        CLEAR     74  59  59 W6        29.88S                  
*PASADENA        N/A     70  63  78 N1          N/A                   
RIVERSIDE      CLEAR     74  58  57 W3        29.88S                  
SAN BERNARDINO FAIR      78  58  51 W5        29.89S                  
*SAN GABRIEL     N/A     70  63  78 SW2       29.93S                  
*SAN RAFAEL HI   N/A     68  53  58 SW6         N/A                   
*SAUGUS          N/A     78  56  46 CALM        N/A                   
*WHITEMAN AP   NOT AVBL                                               
*WHITTIER HILL   N/A     63  60  91 S5          N/A                   
*WOODLAND HILL   N/A     73  55  53 NE2         N/A                   

$$

CAZ054-055-300800-
LA AND SAN BERNARDINO COUNTY MOUNTAINS

  
CITY           SKY/WX    TMP DP  RH WIND       PRES   REMARKS
*ACTON           N/A     75  48  38 CALM        N/A                   
*BIG BEAR AIRP SUNNY     57  41  54 CALM      30.28S                  
*BIG PINES       N/A     66  17  15 CALM        N/A                   
*CHILAO          N/A     78  27  15 N14         N/A                   
SANDBERG       CLEAR     80  34  19 N29G41    30.10F                  
*WARM SPRINGS    N/A     81  -1   4 W23         N/A                   

$$

CAZ028-029-059-060-099-300800-
ANTELOPE VALLEY AND SURROUNDING AREAS

  
CITY           SKY/WX    TMP DP  RH WIND       PRES   REMARKS
LANCASTER      CLEAR     86  36  16 W15       29.91S                  
PALMDALE       CLEAR     85  31  14 SW9       29.94S                  
*POPPY PARK      N/A     86  36  17 W20         N/A                   

CITY           SKY/WX    TMP DP  RH WIND       PRES   REMARKS
29 PALMS       CLEAR     88  60  38 W21       29.94F                  
BARSTOW/DAGGET CLEAR     94  33  11 SW16      29.85S                  
BISHOP         PTCLDY    72  44  36 NE5       30.04S                  
CHINA LAKE     CLEAR     90  38  16 SW6       29.85R                  
EDWARDS AFB    CLEAR     85  26  11 SW12      29.88F                  
MOJAVE         CLEAR     88  25  10 NW30      29.90S                  
NEEDLES        PTCLDY   100  55  22 S15       29.77S HX  98           
VICTORVILLE    CLEAR     82  27  13 CALM      29.96R                  

$$

CAZ039-040-300800-
VENTURA AND SANTA BARBARA COUNTY COAST

  
CITY           SKY/WX    TMP DP  RH WIND       PRES   REMARKS
CAMARILLO      CLEAR     64  57  78 SW3       29.86R                  
NWS OXNARD       N/A     62  57  82 CALM      29.85F                  
OXNARD AIRPORT CLEAR     64  59  83 CALM      29.86S                  
*POINT MUGU    CLEAR     61  57  87 CALM      29.86S FOG              
SBA APT/GOLETA CLEAR     62  60  93 E5        29.83S                  
*SANTA BARBARA   N/A     64  58  79 CALM      29.92R                  
*VENTURA         N/A     63  59  88 CALM      29.84S                  

$$

CAZ044-045-300800-
VENTURA COUNTY VALLEYS

  
CITY           SKY/WX    TMP DP  RH WIND       PRES   REMARKS
*SIMI VALLEY     N/A     68  59  73 CALM      29.80S                  
*WESTLAKE VILL   N/A     65  58  75 CALM      29.83R                  
*OJAI            N/A     65  57  75 CALM      29.77S                  
*FILLMORE        N/A     65  56  72 CALM      29.74F                  

$$

CAZ053-300800-
VENTURA COUNTY MOUNTAINS

  
CITY           SKY/WX    TMP DP  RH WIND       PRES   REMARKS
*ROSE VALLEY     N/A     72  37  28 MISG        N/A                   

$$

CAZ034-035-036-300800-
CENTRAL COAST AND SANTA YNEZ VALLEY

  
CITY           SKY/WX    TMP DP  RH WIND       PRES   REMARKS
SAN LUIS OBISP CLOUDY    55  52  89 NW6       29.94R                  
SANTA MARIA    CLOUDY    53  52  96 NW3       29.94S FOG              

CITY           SKY/WX    TMP DP  RH WIND       PRES   REMARKS
*CAL POLY SLO    N/A     54  52  94 SW3G9       N/A                   
*LOMPOC        CLOUDY    54  52  93 W7        29.94S                  
*PISMO BEACH     N/A     54  50  89 CALM      29.94R                  
*SANTA YNEZ    FAIR      52  48  87 W3        29.92S                  

$$

CAZ037-038-051-300800-
SAN LUIS OBISPO COUNTY INTERIOR AND CUYAMA VALLEY

  
CITY           SKY/WX    TMP DP  RH WIND       PRES   REMARKS
*CUYAMA          N/A     74  39  27 CALM      29.80S                  
PASO ROBLES    CLEAR     60  49  66 NW6       29.91S                  

$$

CAZ032-033-061-300800-
SOUTHERN DESERTS

  
CITY           SKY/WX    TMP DP  RH WIND       PRES   REMARKS
BLYTHE         PTCLDY    92  65  40 S9        29.78S HX  94           
IMPERIAL       CLEAR     90  69  50 E10       29.72F HX  94           
PALM SPRINGS   CLEAR     94  66  39 N6        29.81S HX  97           
THERMAL        CLEAR     87  70  56 SW3       29.74R HX  92           

$$

ELSEWHERE ACROSS THE WESTERN UNITED STATES AND MEXICO

  
CITY           SKY/WX    TMP DP  RH WIND       PRES   REMARKS
DEATH VALLEY,    N/A    104  51  16 NW8         N/A  HX 101           
DENVER, CO     MOCLDY    67  52  58 SW8       30.19F                  
GRAND CANYON,  MOCLDY    58  53  84 CALM      30.28S                  
HONOLULU, HI   PTCLDY    79  68  69 NE13      30.06R                  
KAHULUI, MAUI  PTCLDY    79  72  78 NE12G20   30.04S                  
LAKE TAHOE, CA CLEAR     52  39  61 CALM      30.24S                  
LAS VEGAS, NV  MOCLDY    96  44  16 N13       29.83R HX  92           
MAMMOTH LAKES, FAIR      62  33  34 W3        30.31S                  
MEXICO CITY, M CLOUDY    57  52  82 E3        30.37F                  
PHOENIX, AZ    CLOUDY    85  65  51 SE9       29.84F                  
PORTLAND, OR   CLEAR     59  49  69 NW14      30.20R                  
RENO, NV       PTCLDY    75  28  17 W5        30.10R                  
SALT LAKE CITY CLOUDY    79  48  33 S14G23    30.07F                  
SAN DIEGO, CA  CLOUDY    65  61  87 S5        29.91S                  
SAN FRANCISCO, PTCLDY    55  49  80 W3        29.93F                  
SAN JOSE, CA   PTCLDY    57  51  80 CALM      29.93F                  
SEATTLE, WA    PTCLDY    61  57  87 CALM      30.18S                  
TIJUANA, MEX   CLEAR     64  59  82 N5        29.92S                  

$$
  
STATION/POSITION TIME  TEMP    WIND        PRES    VSBY  WAVE
                       AIR SEA DIR/SP/G                  HT/PER
                 (UTC) (F)     (DEG/KT/KT) (MB)    (MI)  (FT/S)
POINT ARGUELLO B NOT AVBL
WEST SANTA BARBA 0650   53 56  320/ 29/ 35 1010.7F        10/10
POINT CONCEPTION NOT AVBL
EAST SANTA BARBA 0600          240/ 14/ 16 1010.5S
SANTA MONICA BAY 0650   66 70   80/  4/  6 1011.4S         5/ 7

Return to Home page


Western Regional Climate Center, wrcc@dri.edu